,,Stat6,,Stat2,,Stat8,,Stat9,,Stat10,,Wind1,,Wind1,
time,status,PA1M_AVG,status,PR1M_SUM,status,RH1M_AVG,status,SR1M_AVG,status,TA1M_AVG,status,W1dAve1m,status,W1sAve1m,
2008-09-23, 00:00:00,VALID,917.628,VALID,0,VALID,100,VALID,0.0169808,VALID,20.5333,VALID,146,VALID,0,
2008-09-23, 00:01:00,VALID,917.629,VALID,0,VALID,100,VALID,0.0169808,VALID,20.5298,VALID,146,VALID,0,
2008-09-23, 00:02:00,VALID,917.623,VALID,0,VALID,100,VALID,0.0169808,VALID,20.5495,VALID,146,VALID,0,
2008-09-23, 00:03:00,VALID,917.63,VALID,0,VALID,100,VALID,0.0169808,VALID,20.5557,VALID,146,VALID,0,
2008-09-23, 00:04:00,VALID,917.624,VALID,0,VALID,100,VALID,0,VALID,20.5562,VALID,146,VALID,0,
2008-09-23, 00:05:00,VALID,917.592,VALID,0,VALID,100,VALID,0,VALID,20.5365,VALID,146,VALID,0,
2008-09-23, 00:06:00,VALID,917.575,VALID,0,VALID,100,VALID,0.0169808,VALID,20.5333,VALID,146,VALID,0,
2008-09-23, 00:07:00,VALID,917.554,VALID,0,VALID,100,VALID,0.0509425,VALID,20.5398,VALID,146,VALID,0,
2008-09-23, 00:08:00,VALID,917.544,VALID,0,VALID,100,VALID,0,VALID,20.5657,VALID,146,VALID,0,
2008-09-23, 00:09:00,VALID,917.535,VALID,0,VALID,100,VALID,0.0339617,VALID,20.5849,VALID,146,VALID,0,
2008-09-23, 00:10:00,VALID,917.545,VALID,0,VALID,100,VALID,0.0339617,VALID,20.5914,VALID,146,VALID,0,
2008-09-23, 00:11:00,VALID,917.561,VALID,0,VALID,100,VALID,0.0339617,VALID,20.5625,VALID,146,VALID,0,
2008-09-23, 00:12:00,VALID,917.557,VALID,0,VALID,100,VALID,0,VALID,20.5757,VALID,146,VALID,0,
2008-09-23, 00:13:00,VALID,917.565,VALID,0,VALID,100,VALID,0,VALID,20.556,VALID,146,VALID,0,
2008-09-23, 00:14:00,VALID,917.559,VALID,0,VALID,100,VALID,0,VALID,20.5365,VALID,146,VALID,0,
2008-09-23, 00:15:00,VALID,917.552,VALID,0,VALID,100,VALID,0.0339617,VALID,20.5462,VALID,146,VALID,0,
2008-09-23, 00:16:00,VALID,917.531,VALID,0,VALID,100,VALID,0.0339617,VALID,20.5492,VALID,146,VALID,0,
2008-09-23, 00:17:00,VALID,917.513,VALID,0,VALID,100,VALID,0.0169808,VALID,20.5333,VALID,146,VALID,0,
2008-09-23, 00:18:00,VALID,917.486,VALID,0,VALID,100,VALID,0,VALID,20.5333,VALID,146,VALID,0,
2008-09-23, 00:19:00,VALID,917.453,VALID,0,VALID,100,VALID,0.0169808,VALID,20.5235,VALID,134,VALID,0,
2008-09-23, 00:20:00,VALID,917.425,VALID,0,VALID,100,VALID,0,VALID,20.4846,VALID,115,VALID,0,
2008-09-23, 00:21:00,VALID,917.409,VALID,0,VALID,100,VALID,0.0339617,VALID,20.4424,VALID,106,VALID,0.199491,
2008-09-23, 00:22:00,VALID,917.387,VALID,0,VALID,100,VALID,0,VALID,20.4164,VALID,80,VALID,0,
2008-09-23, 00:23:00,VALID,917.364,VALID,0,VALID,100,VALID,0.0339617,VALID,20.384,VALID,85,VALID,0,
2008-09-23, 00:24:00,VALID,917.344,VALID,0,VALID,100,VALID,0.0509425,VALID,20.3445,VALID,96,VALID,0,
2008-09-23, 00:25:00,VALID,917.323,VALID,0,VALID,100,VALID,0.0679233,VALID,20.3253,VALID,118,VALID,0,
2008-09-23, 00:26:00,VALID,917.317,VALID,0,VALID,100,VALID,0.0509425,VALID,20.3223,VALID,126,VALID,0,
2008-09-23, 00:27:00,VALID,917.302,VALID,0,VALID,100,VALID,0.0169808,VALID,20.3158,VALID,139,VALID,0,
2008-09-23, 00:28:00,VALID,917.281,VALID,0,VALID,100,VALID,0,VALID,20.3156,VALID,150,VALID,0.309524,
2008-09-23, 00:29:00,VALID,917.255,VALID,0,VALID,100,VALID,0.0679233,VALID,20.3188,VALID,153,VALID,0.751598,
2008-09-23, 00:30:00,VALID,917.235,VALID,0,VALID,100,VALID,0.0509425,VALID,20.3223,VALID,153,VALID,0.422408,
2008-09-23, 00:31:00,VALID,917.194,VALID,0,VALID,100,VALID,0.0339617,VALID,20.3221,VALID,153,VALID,0.0227108,
2008-09-23, 00:32:00,VALID,917.178,VALID,0,VALID,100,VALID,0.0339617,VALID,20.3288,VALID,153,VALID,0,
2008-09-23, 00:33:00,VALID,917.156,VALID,0,VALID,100,VALID,0.0169808,VALID,20.3158,VALID,153,VALID,0,
2008-09-23, 00:34:00,VALID,917.136,VALID,0,VALID,100,VALID,-0.0679233,VALID,20.3036,VALID,149,VALID,0,
2008-09-23, 00:35:00,VALID,917.13,VALID,0,VALID,100,VALID,-0.0509425,VALID,20.2779,VALID,148,VALID,0,
2008-09-23, 00:36:00,VALID,917.127,VALID,0,VALID,100,VALID,-0.0509425,VALID,20.2619,VALID,148,VALID,0,
2008-09-23, 00:37:00,VALID,917.114,VALID,0,VALID,100,VALID,-0.0849042,VALID,20.259,VALID,134,VALID,0,
2008-09-23, 00:38:00,VALID,917.106,VALID,0,VALID,100,VALID,-0.101885,VALID,20.2527,VALID,125,VALID,0,
2008-09-23, 00:39:00,VALID,917.096,VALID,0,VALID,100,VALID,-0.0679233,VALID,20.2619,VALID,125,VALID,0,
2008-09-23, 00:40:00,VALID,917.098,VALID,0,VALID,100,VALID,-0.0339617,VALID,20.2687,VALID,125,VALID,0,
2008-09-23, 00:41:00,VALID,917.097,VALID,0,VALID,100,VALID,-0.0339617,VALID,20.2874,VALID,125,VALID,0,
2008-09-23, 00:42:00,VALID,917.096,VALID,0,VALID,100,VALID,-0.0849042,VALID,20.2979,VALID,133,VALID,0,
2008-09-23, 00:43:00,VALID,917.079,VALID,0,VALID,100,VALID,-0.0679233,VALID,20.3044,VALID,138,VALID,0,
2008-09-23, 00:44:00,VALID,917.072,VALID,0,VALID,100,VALID,-0.0509425,VALID,20.3004,VALID,138,VALID,0,
2008-09-23, 00:45:00,VALID,917.065,VALID,0,VALID,100,VALID,-0.0679233,VALID,20.3009,VALID,138,VALID,0,
2008-09-23, 00:46:00,VALID,917.039,VALID,0,VALID,100,VALID,-0.101885,VALID,20.3006,VALID,138,VALID,0,
2008-09-23, 00:47:00,VALID,917.032,VALID,0,VALID,100,VALID,-0.0679233,VALID,20.3141,VALID,138,VALID,0,
2008-09-23, 00:48:00,VALID,917.017,VALID,0,VALID,100,VALID,-0.0849042,VALID,20.3171,VALID,138,VALID,0,
2008-09-23, 00:49:00,VALID,917.017,VALID,0,VALID,100,VALID,-0.0169808,VALID,20.3196,VALID,138,VALID,0,
2008-09-23, 00:50:00,VALID,917.01,VALID,0,VALID,100,VALID,0,VALID,20.3093,VALID,147,VALID,0,
2008-09-23, 00:51:00,VALID,917.009,VALID,0,VALID,100,VALID,0,VALID,20.3293,VALID,148,VALID,0,
2008-09-23, 00:52:00,VALID,917.014,VALID,0,VALID,100,VALID,0,VALID,20.3323,VALID,149,VALID,0,
2008-09-23, 00:53:00,VALID,917.013,VALID,0,VALID,100,VALID,0,VALID,20.3326,VALID,149,VALID,0,
2008-09-23, 00:54:00,VALID,917.005,VALID,0,VALID,100,VALID,-0.0509425,VALID,20.3358,VALID,150,VALID,0,
2008-09-23, 00:55:00,VALID,917.016,VALID,0,VALID,100,VALID,0.0169808,VALID,20.3321,VALID,162,VALID,0,
2008-09-23, 00:56:00,VALID,917.008,VALID,0,VALID,100,VALID,0,VALID,20.3453,VALID,162,VALID,0,
2008-09-23, 00:57:00,VALID,917.017,VALID,0,VALID,100,VALID,-0.0169808,VALID,20.3515,VALID,162,VALID,0,
2008-09-23, 00:58:00,VALID,917.044,VALID,0,VALID,100,VALID,0,VALID,20.3418,VALID,162,VALID,0,
2008-09-23, 00:59:00,VALID,917.053,VALID,0,VALID,100,VALID,-0.0169808,VALID,20.3223,VALID,162,VALID,0,
2008-09-23, 01:00:00,VALID,917.071,VALID,0,VALID,100,VALID,0,VALID,20.3291,VALID,162,VALID,0,
2008-09-23, 01:01:00,VALID,917.084,VALID,0,VALID,100,VALID,0,VALID,20.3228,VALID,162,VALID,0,
2008-09-23, 01:02:00,VALID,917.094,VALID,0,VALID,100,VALID,-0.0169808,VALID,20.2966,VALID,162,VALID,0,
2008-09-23, 01:03:00,VALID,917.1,VALID,0,VALID,100,VALID,0,VALID,20.2847,VALID,162,VALID,0,
2008-09-23, 01:04:00,VALID,917.11,VALID,0,VALID,100,VALID,-0.0849042,VALID,20.2625,VALID,162,VALID,0,
2008-09-23, 01:05:00,VALID,917.136,VALID,0,VALID,100,VALID,-0.101885,VALID,20.23,VALID,160,VALID,0,
2008-09-23, 01:06:00,VALID,917.148,VALID,0,VALID,100,VALID,-0.135847,VALID,20.2081,VALID,145,VALID,0,
2008-09-23, 01:07:00,VALID,917.153,VALID,0,VALID,100,VALID,-0.118866,VALID,20.1908,VALID,145,VALID,0,
2008-09-23, 01:08:00,VALID,917.167,VALID,0,VALID,100,VALID,-0.0849042,VALID,20.1973,VALID,145,VALID,0,
2008-09-23, 01:09:00,VALID,917.19,VALID,0,VALID,100,VALID,-0.101885,VALID,20.1778,VALID,145,VALID,0,
2008-09-23, 01:10:00,VALID,917.207,VALID,0,VALID,100,VALID,-0.118866,VALID,20.1716,VALID,145,VALID,0,
2008-09-23, 01:11:00,VALID,917.219,VALID,0,VALID,100,VALID,-0.118866,VALID,20.1589,VALID,145,VALID,0,
2008-09-23, 01:12:00,VALID,917.223,VALID,0,VALID,100,VALID,-0.152827,VALID,20.1424,VALID,145,VALID,0,
2008-09-23, 01:13:00,VALID,917.222,VALID,0,VALID,100,VALID,-0.118866,VALID,20.1294,VALID,144,VALID,0.215972,
2008-09-23, 01:14:00,VALID,917.222,VALID,0,VALID,100,VALID,-0.135847,VALID,20.1297,VALID,141,VALID,0.582403,
2008-09-23, 01:15:00,VALID,917.205,VALID,0,VALID,100,VALID,-0.118866,VALID,20.1326,VALID,139,VALID,0.803906,
2008-09-23, 01:16:00,VALID,917.211,VALID,0,VALID,100,VALID,-0.118866,VALID,20.1521,VALID,138,VALID,1.02453,
2008-09-23, 01:17:00,VALID,917.21,VALID,0,VALID,100,VALID,-0.118866,VALID,20.1486,VALID,138,VALID,1.00266,
2008-09-23, 01:18:00,VALID,917.204,VALID,0,VALID,100,VALID,-0.101885,VALID,20.1551,VALID,136,VALID,0.925604,
2008-09-23, 01:19:00,VALID,917.192,VALID,0,VALID,100,VALID,-0.0339617,VALID,20.1508,VALID,134,VALID,0.360899,
2008-09-23, 01:20:00,VALID,917.187,VALID,0,VALID,100,VALID,-0.0169808,VALID,20.1476,VALID,143,VALID,0.291424,
2008-09-23, 01:21:00,VALID,917.169,VALID,0,VALID,100,VALID,-0.0509425,VALID,20.1374,VALID,148,VALID,0.774858,
2008-09-23, 01:22:00,VALID,917.155,VALID,0,VALID,100,VALID,0,VALID,20.1506,VALID,155,VALID,0.753162,
2008-09-23, 01:23:00,VALID,917.14,VALID,0,VALID,100,VALID,0,VALID,20.1601,VALID,148,VALID,0.18936,
2008-09-23, 01:24:00,VALID,917.14,VALID,0,VALID,100,VALID,-0.0169808,VALID,20.1503,VALID,152,VALID,0.610899,
2008-09-23, 01:25:00,VALID,917.124,VALID,0,VALID,100,VALID,-0.0169808,VALID,20.1538,VALID,153,VALID,0.318314,
2008-09-23, 01:26:00,VALID,917.118,VALID,0,VALID,100,VALID,0,VALID,20.1571,VALID,154,VALID,0,
2008-09-23, 01:27:00,VALID,917.125,VALID,0,VALID,100,VALID,0,VALID,20.1603,VALID,142,VALID,0.477653,
2008-09-23, 01:28:00,VALID,917.114,VALID,0,VALID,100,VALID,-0.0169808,VALID,20.1276,VALID,137,VALID,0.108507,
2008-09-23, 01:29:00,VALID,917.112,VALID,0,VALID,100,VALID,-0.0339617,VALID,20.1146,VALID,137,VALID,0,
2008-09-23, 01:30:00,VALID,917.099,VALID,0,VALID,100,VALID,0.0169808,VALID,20.1119,VALID,137,VALID,0,
2008-09-23, 01:31:00,VALID,917.091,VALID,0,VALID,100,VALID,-0.0169808,VALID,20.0852,VALID,137,VALID,0,
2008-09-23, 01:32:00,VALID,917.06,VALID,0,VALID,100,VALID,0.0339617,VALID,20.0854,VALID,137,VALID,0,
2008-09-23, 01:33:00,VALID,917.034,VALID,0,VALID,100,VALID,0,VALID,20.069,VALID,137,VALID,0,
2008-09-23, 01:34:00,VALID,917.008,VALID,0,VALID,100,VALID,-0.0679233,VALID,20.067,VALID,137,VALID,0,
2008-09-23, 01:35:00,VALID,916.986,VALID,0,VALID,100,VALID,-0.101885,VALID,20.0742,VALID,137,VALID,0,
2008-09-23, 01:36:00,VALID,916.97,VALID,0,VALID,100,VALID,-0.101885,VALID,20.0642,VALID,137,VALID,0.619336,
2008-09-23, 01:37:00,VALID,916.942,VALID,0,VALID,100,VALID,-0.118866,VALID,20.0415,VALID,136,VALID,0.216797,
2008-09-23, 01:38:00,VALID,916.948,VALID,0,VALID,100,VALID,-0.118866,VALID,20.0413,VALID,135,VALID,0,
2008-09-23, 01:39:00,VALID,916.94,VALID,0,VALID,100,VALID,-0.101885,VALID,20.0223,VALID,135,VALID,0,
2008-09-23, 01:40:00,VALID,916.937,VALID,0,VALID,100,VALID,-0.118866,VALID,20.0063,VALID,131,VALID,0,
2008-09-23, 01:41:00,VALID,916.932,VALID,0,VALID,100,VALID,-0.118866,VALID,19.9896,VALID,131,VALID,0,
2008-09-23, 01:42:00,VALID,916.934,VALID,0,VALID,100,VALID,-0.101885,VALID,19.9734,VALID,131,VALID,0,
2008-09-23, 01:43:00,VALID,916.924,VALID,0,VALID,100,VALID,-0.101885,VALID,19.9612,VALID,131,VALID,0,
2008-09-23, 01:44:00,VALID,916.919,VALID,0,VALID,100,VALID,-0.101885,VALID,19.9314,VALID,131,VALID,0,
2008-09-23, 01:45:00,VALID,916.916,VALID,0,VALID,100,VALID,-0.0849042,VALID,19.8922,VALID,131,VALID,0,
2008-09-23, 01:46:00,VALID,916.92,VALID,0,VALID,100,VALID,-0.101885,VALID,19.8338,VALID,131,VALID,0,
2008-09-23, 01:47:00,VALID,916.893,VALID,0,VALID,100,VALID,-0.101885,VALID,19.8014,VALID,131,VALID,0,
2008-09-23, 01:48:00,VALID,916.881,VALID,0,VALID,100,VALID,-0.118866,VALID,19.8181,VALID,126,VALID,0,
2008-09-23, 01:49:00,VALID,916.868,VALID,0,VALID,100,VALID,-0.0339617,VALID,19.8266,VALID,121,VALID,0,
2008-09-23, 01:50:00,VALID,916.843,VALID,0,VALID,100,VALID,-0.0169808,VALID,19.8221,VALID,120,VALID,0,
2008-09-23, 01:51:00,VALID,916.816,VALID,0,VALID,100,VALID,0.0169808,VALID,19.7924,VALID,120,VALID,0,
2008-09-23, 01:52:00,VALID,916.804,VALID,0,VALID,100,VALID,0,VALID,19.7996,VALID,120,VALID,0,
2008-09-23, 01:53:00,VALID,916.796,VALID,0,VALID,100,VALID,0.0339617,VALID,19.8059,VALID,120,VALID,0,
2008-09-23, 01:54:00,VALID,916.801,VALID,0,VALID,100,VALID,0.0339617,VALID,19.7931,VALID,120,VALID,0,
2008-09-23, 01:55:00,VALID,916.785,VALID,0,VALID,100,VALID,0.0169808,VALID,19.754,VALID,121,VALID,0,
2008-09-23, 01:56:00,VALID,916.768,VALID,0,VALID,100,VALID,0.0169808,VALID,19.751,VALID,125,VALID,0,
2008-09-23, 01:57:00,VALID,916.758,VALID,0,VALID,100,VALID,0,VALID,19.7347,VALID,125,VALID,0.142401,
2008-09-23, 01:58:00,VALID,916.735,VALID,0,VALID,100,VALID,0,VALID,19.7308,VALID,125,VALID,0.873728,
2008-09-23, 01:59:00,VALID,916.704,VALID,0,VALID,100,VALID,0.0169808,VALID,19.7542,VALID,123,VALID,1.06917,
2008-09-23, 02:00:00,VALID,916.678,VALID,0,VALID,100,VALID,0.0339617,VALID,19.7537,VALID,124,VALID,0.97619,
2008-09-23, 02:01:00,VALID,916.65,VALID,0,VALID,100,VALID,0.0169808,VALID,19.7829,VALID,123,VALID,0.95625,
2008-09-23, 02:02:00,VALID,916.634,VALID,0,VALID,100,VALID,0.0339617,VALID,19.7595,VALID,128,VALID,0.814258,
2008-09-23, 02:03:00,VALID,916.621,VALID,0,VALID,100,VALID,0,VALID,19.747,VALID,135,VALID,1.02882,
2008-09-23, 02:04:00,VALID,916.604,VALID,0,VALID,100,VALID,0.0679233,VALID,19.754,VALID,135,VALID,0.781436,
2008-09-23, 02:05:00,VALID,916.604,VALID,0,VALID,100,VALID,0,VALID,19.738,VALID,135,VALID,0.748001,
2008-09-23, 02:06:00,VALID,916.603,VALID,0,VALID,100,VALID,0.0339617,VALID,19.741,VALID,135,VALID,0.7859,
2008-09-23, 02:07:00,VALID,916.595,VALID,0,VALID,100,VALID,0.0339617,VALID,19.7275,VALID,135,VALID,0.73117,
2008-09-23, 02:08:00,VALID,916.613,VALID,0,VALID,100,VALID,0.0339617,VALID,19.7016,VALID,135,VALID,0.631722,
2008-09-23, 02:09:00,VALID,916.594,VALID,0,VALID,100,VALID,0.0339617,VALID,19.6821,VALID,135,VALID,0.552202,
2008-09-23, 02:10:00,VALID,916.591,VALID,0,VALID,100,VALID,0.0339617,VALID,19.6594,VALID,135,VALID,0.169207,
2008-09-23, 02:11:00,VALID,916.591,VALID,0,VALID,100,VALID,0.0339617,VALID,19.6466,VALID,135,VALID,0,
2008-09-23, 02:12:00,VALID,916.594,VALID,0,VALID,100,VALID,0.0339617,VALID,19.6367,VALID,135,VALID,0,
2008-09-23, 02:13:00,VALID,916.596,VALID,0,VALID,100,VALID,0.0339617,VALID,19.6461,VALID,135,VALID,0,
2008-09-23, 02:14:00,VALID,916.587,VALID,0,VALID,100,VALID,0.0679233,VALID,19.6397,VALID,135,VALID,0,
2008-09-23, 02:15:00,VALID,916.586,VALID,0,VALID,100,VALID,0.0509425,VALID,19.6035,VALID,135,VALID,0,
2008-09-23, 02:16:00,VALID,916.579,VALID,0,VALID,100,VALID,0.101885,VALID,19.5718,VALID,135,VALID,0,
2008-09-23, 02:17:00,VALID,916.572,VALID,0,VALID,100,VALID,0.0849042,VALID,19.4869,VALID,135,VALID,0,
2008-09-23, 02:18:00,VALID,916.573,VALID,0,VALID,100,VALID,0.0849042,VALID,19.4123,VALID,135,VALID,0,
2008-09-23, 02:19:00,VALID,916.57,VALID,0,VALID,100,VALID,-0.0169808,VALID,19.3519,VALID,135,VALID,0,
2008-09-23, 02:20:00,VALID,916.555,VALID,0,VALID,100,VALID,-0.0169808,VALID,19.3102,VALID,135,VALID,0,
2008-09-23, 02:21:00,VALID,916.564,VALID,0,VALID,100,VALID,-0.0169808,VALID,19.2743,VALID,135,VALID,0,
2008-09-23, 02:22:00,VALID,916.565,VALID,0,VALID,100,VALID,-0.0339617,VALID,19.3197,VALID,139,VALID,0,
2008-09-23, 02:23:00,VALID,916.576,VALID,0,VALID,100,VALID,-0.0679233,VALID,19.4175,VALID,230,VALID,0,
2008-09-23, 02:24:00,VALID,916.586,VALID,0,VALID,100,VALID,-0.0509425,VALID,19.5014,VALID,235,VALID,0,
2008-09-23, 02:25:00,VALID,916.582,VALID,0,VALID,100,VALID,-0.0679233,VALID,19.5563,VALID,235,VALID,0,
2008-09-23, 02:26:00,VALID,916.598,VALID,0,VALID,100,VALID,-0.0679233,VALID,19.6085,VALID,235,VALID,0,
2008-09-23, 02:27:00,VALID,916.598,VALID,0,VALID,100,VALID,-0.0849042,VALID,19.6252,VALID,235,VALID,0,
2008-09-23, 02:28:00,VALID,916.615,VALID,0,VALID,100,VALID,-0.0849042,VALID,19.6222,VALID,235,VALID,0,
2008-09-23, 02:29:00,VALID,916.577,VALID,0,VALID,100,VALID,-0.0169808,VALID,19.5857,VALID,235,VALID,0,
2008-09-23, 02:30:00,VALID,916.573,VALID,0,VALID,100,VALID,-0.0509425,VALID,19.6119,VALID,235,VALID,0,
2008-09-23, 02:31:00,VALID,916.578,VALID,0,VALID,100,VALID,-0.0679233,VALID,19.6379,VALID,235,VALID,0,
2008-09-23, 02:32:00,VALID,916.572,VALID,0,VALID,100,VALID,-0.0169808,VALID,19.6863,VALID,235,VALID,0,
2008-09-23, 02:33:00,VALID,916.561,VALID,0,VALID,100,VALID,-0.0509425,VALID,19.7288,VALID,235,VALID,0,
2008-09-23, 02:34:00,VALID,916.549,VALID,0,VALID,100,VALID,-0.0679233,VALID,19.7582,VALID,235,VALID,0,
2008-09-23, 02:35:00,VALID,916.545,VALID,0,VALID,100,VALID,-0.0849042,VALID,19.7515,VALID,235,VALID,0,
2008-09-23, 02:36:00,VALID,916.547,VALID,0,VALID,100,VALID,-0.0849042,VALID,19.6743,VALID,235,VALID,0,
2008-09-23, 02:37:00,VALID,916.543,VALID,0,VALID,100,VALID,-0.0679233,VALID,19.6479,VALID,235,VALID,0,
2008-09-23, 02:38:00,VALID,916.531,VALID,0,VALID,100,VALID,-0.0339617,VALID,19.6344,VALID,235,VALID,0,
2008-09-23, 02:39:00,VALID,916.534,VALID,0,VALID,100,VALID,-0.0679233,VALID,19.5506,VALID,201,VALID,0,
2008-09-23, 02:40:00,VALID,916.53,VALID,0,VALID,100,VALID,-0.0339617,VALID,19.5086,VALID,172,VALID,0.406059,
2008-09-23, 02:41:00,VALID,916.528,VALID,0,VALID,100,VALID,-0.0509425,VALID,19.5471,VALID,124,VALID,0.811458,
2008-09-23, 02:42:00,VALID,916.504,VALID,0,VALID,100,VALID,-0.101885,VALID,19.5768,VALID,123,VALID,0.195494,
2008-09-23, 02:43:00,VALID,916.501,VALID,0,VALID,100,VALID,-0.0169808,VALID,19.596,VALID,121,VALID,0,
2008-09-23, 02:44:00,VALID,916.488,VALID,0,VALID,100,VALID,-0.0509425,VALID,19.6219,VALID,121,VALID,0,
2008-09-23, 02:45:00,VALID,916.488,VALID,0,VALID,100,VALID,-0.0849042,VALID,19.6287,VALID,121,VALID,0,
2008-09-23, 02:46:00,VALID,916.487,VALID,0,VALID,100,VALID,-0.0679233,VALID,19.5987,VALID,121,VALID,0,
2008-09-23, 02:47:00,VALID,916.489,VALID,0,VALID,100,VALID,-0.0849042,VALID,19.4887,VALID,121,VALID,0,
2008-09-23, 02:48:00,VALID,916.488,VALID,0,VALID,100,VALID,-0.0169808,VALID,19.43,VALID,121,VALID,0,
2008-09-23, 02:49:00,VALID,916.487,VALID,0,VALID,100,VALID,0.0169808,VALID,19.4715,VALID,121,VALID,0.0369318,
2008-09-23, 02:50:00,VALID,916.478,VALID,0,VALID,100,VALID,0.0339617,VALID,19.4485,VALID,125,VALID,0.1633,
2008-09-23, 02:51:00,VALID,916.463,VALID,0,VALID,100,VALID,0.0339617,VALID,19.4355,VALID,146,VALID,0.695486,
2008-09-23, 02:52:00,VALID,916.454,VALID,0,VALID,100,VALID,0.0509425,VALID,19.4742,VALID,157,VALID,0.889137,
2008-09-23, 02:53:00,VALID,916.434,VALID,0,VALID,100,VALID,0.0169808,VALID,19.5034,VALID,157,VALID,0.633371,
2008-09-23, 02:54:00,VALID,916.422,VALID,0,VALID,100,VALID,0.0509425,VALID,19.5234,VALID,157,VALID,0.248884,
2008-09-23, 02:55:00,VALID,916.402,VALID,0,VALID,100,VALID,0.0509425,VALID,19.5224,VALID,157,VALID,0,
2008-09-23, 02:56:00,VALID,916.378,VALID,0,VALID,100,VALID,0.0339617,VALID,19.5456,VALID,157,VALID,0,
2008-09-23, 02:57:00,VALID,916.362,VALID,0,VALID,100,VALID,0.0339617,VALID,19.5491,VALID,157,VALID,0,
2008-09-23, 02:58:00,VALID,916.357,VALID,0,VALID,100,VALID,0.0509425,VALID,19.5618,VALID,157,VALID,0,
2008-09-23, 02:59:00,VALID,916.36,VALID,0,VALID,100,VALID,0,VALID,19.5718,VALID,156,VALID,0,
2008-09-23, 03:00:00,VALID,916.367,VALID,0,VALID,100,VALID,0,VALID,19.5623,VALID,148,VALID,0,
2008-09-23, 03:01:00,VALID,916.381,VALID,0,VALID,100,VALID,0.0339617,VALID,19.5461,VALID,148,VALID,0,
2008-09-23, 03:02:00,VALID,916.377,VALID,0,VALID,100,VALID,0.0339617,VALID,19.5201,VALID,145,VALID,0,
2008-09-23, 03:03:00,VALID,916.375,VALID,0,VALID,100,VALID,0.0169808,VALID,19.5231,VALID,142,VALID,0,
2008-09-23, 03:04:00,VALID,916.372,VALID,0,VALID,100,VALID,-0.0169808,VALID,19.5239,VALID,138,VALID,0.330729,
2008-09-23, 03:05:00,VALID,916.36,VALID,0,VALID,100,VALID,-0.0849042,VALID,19.5281,VALID,139,VALID,1.22567,
2008-09-23, 03:06:00,VALID,916.34,VALID,0,VALID,100,VALID,-0.0849042,VALID,19.5406,VALID,141,VALID,1.01749,
2008-09-23, 03:07:00,VALID,916.328,VALID,0,VALID,100,VALID,-0.0339617,VALID,19.5343,VALID,146,VALID,1.0625,
2008-09-23, 03:08:00,VALID,916.317,VALID,0,VALID,100,VALID,-0.0679233,VALID,19.5411,VALID,145,VALID,1.05208,
2008-09-23, 03:09:00,VALID,916.304,VALID,0,VALID,100,VALID,-0.0509425,VALID,19.5403,VALID,146,VALID,1.02961,
2008-09-23, 03:10:00,VALID,916.295,VALID,0,VALID,100,VALID,-0.0169808,VALID,19.5371,VALID,145,VALID,1.01505,
2008-09-23, 03:11:00,VALID,916.294,VALID,0,VALID,100,VALID,-0.0509425,VALID,19.5111,VALID,142,VALID,0.963356,
2008-09-23, 03:12:00,VALID,916.288,VALID,0,VALID,100,VALID,-0.0849042,VALID,19.5179,VALID,143,VALID,0.790015,
2008-09-23, 03:13:00,VALID,916.274,VALID,0,VALID,100,VALID,-0.0169808,VALID,19.5084,VALID,150,VALID,0.560902,
2008-09-23, 03:14:00,VALID,916.277,VALID,0,VALID,100,VALID,-0.0509425,VALID,19.4917,VALID,158,VALID,0.81955,
2008-09-23, 03:15:00,VALID,916.285,VALID,0,VALID,100,VALID,-0.0339617,VALID,19.4922,VALID,159,VALID,0.902253,
2008-09-23, 03:16:00,VALID,916.28,VALID,0,VALID,100,VALID,-0.0339617,VALID,19.4887,VALID,159,VALID,0.680051,
2008-09-23, 03:17:00,VALID,916.277,VALID,0,VALID,100,VALID,-0.0339617,VALID,19.4527,VALID,150,VALID,0.271723,
2008-09-23, 03:18:00,VALID,916.292,VALID,0,VALID,100,VALID,-0.0849042,VALID,19.44,VALID,149,VALID,0,
2008-09-23, 03:19:00,VALID,916.288,VALID,0,VALID,100,VALID,-0.0509425,VALID,19.4465,VALID,136,VALID,0,
2008-09-23, 03:20:00,VALID,916.289,VALID,0,VALID,100,VALID,-0.0849042,VALID,19.4407,VALID,139,VALID,0.00130208,
2008-09-23, 03:21:00,VALID,916.272,VALID,0,VALID,100,VALID,-0.0509425,VALID,19.4467,VALID,136,VALID,0.00234375,
2008-09-23, 03:22:00,VALID,916.269,VALID,0,VALID,100,VALID,-0.0849042,VALID,19.4604,VALID,138,VALID,0,
2008-09-23, 03:23:00,VALID,916.26,VALID,0,VALID,100,VALID,-0.135847,VALID,19.4467,VALID,140,VALID,0,
2008-09-23, 03:24:00,VALID,916.268,VALID,0,VALID,100,VALID,-0.0849042,VALID,19.44,VALID,145,VALID,0,
2008-09-23, 03:25:00,VALID,916.264,VALID,0,VALID,100,VALID,-0.101885,VALID,19.4435,VALID,147,VALID,0,
2008-09-23, 03:26:00,VALID,916.29,VALID,0,VALID,100,VALID,-0.0509425,VALID,19.4497,VALID,144,VALID,0,
2008-09-23, 03:27:00,VALID,916.294,VALID,0,VALID,100,VALID,-0.0849042,VALID,19.4637,VALID,146,VALID,0,
2008-09-23, 03:28:00,VALID,916.301,VALID,0,VALID,100,VALID,-0.101885,VALID,19.4497,VALID,140,VALID,0,
2008-09-23, 03:29:00,VALID,916.316,VALID,0,VALID,100,VALID,-0.101885,VALID,19.4602,VALID,140,VALID,0,
2008-09-23, 03:30:00,VALID,916.319,VALID,0,VALID,100,VALID,-0.0679233,VALID,19.4729,VALID,136,VALID,0,
2008-09-23, 03:31:00,VALID,916.329,VALID,0,VALID,100,VALID,-0.0679233,VALID,19.4727,VALID,134,VALID,0,
2008-09-23, 03:32:00,VALID,916.341,VALID,0,VALID,100,VALID,-0.0679233,VALID,19.4664,VALID,134,VALID,0,
2008-09-23, 03:33:00,VALID,916.346,VALID,0,VALID,100,VALID,-0.101885,VALID,19.4857,VALID,134,VALID,0,
2008-09-23, 03:34:00,VALID,916.345,VALID,0,VALID,100,VALID,-0.101885,VALID,19.4689,VALID,134,VALID,0,
2008-09-23, 03:35:00,VALID,916.35,VALID,0,VALID,100,VALID,-0.0849042,VALID,19.5019,VALID,137,VALID,0,
2008-09-23, 03:36:00,VALID,916.352,VALID,0,VALID,100,VALID,-0.0679233,VALID,19.5119,VALID,143,VALID,0,
2008-09-23, 03:37:00,VALID,916.364,VALID,0,VALID,100,VALID,-0.0679233,VALID,19.5049,VALID,148,VALID,0,
2008-09-23, 03:38:00,VALID,916.349,VALID,0,VALID,100,VALID,-0.0679233,VALID,19.5049,VALID,148,VALID,0,
2008-09-23, 03:39:00,VALID,916.363,VALID,0,VALID,100,VALID,-0.0509425,VALID,19.5144,VALID,142,VALID,0,
2008-09-23, 03:40:00,VALID,916.365,VALID,0,VALID,100,VALID,-0.0169808,VALID,19.5209,VALID,135,VALID,0,
2008-09-23, 03:41:00,VALID,916.367,VALID,0,VALID,100,VALID,-0.0339617,VALID,19.5438,VALID,132,VALID,0,
2008-09-23, 03:42:00,VALID,916.378,VALID,0,VALID,100,VALID,0,VALID,19.5568,VALID,128,VALID,0,
2008-09-23, 03:43:00,VALID,916.383,VALID,0,VALID,100,VALID,-0.0849042,VALID,19.5837,VALID,128,VALID,0,
2008-09-23, 03:44:00,VALID,916.386,VALID,0,VALID,100,VALID,-0.0339617,VALID,19.5865,VALID,128,VALID,0,
2008-09-23, 03:45:00,VALID,916.376,VALID,0,VALID,100,VALID,0,VALID,19.5987,VALID,128,VALID,0,
2008-09-23, 03:46:00,VALID,916.364,VALID,0,VALID,100,VALID,-0.0169808,VALID,19.6057,VALID,128,VALID,0,
2008-09-23, 03:47:00,VALID,916.362,VALID,0,VALID,100,VALID,-0.0339617,VALID,19.599,VALID,128,VALID,0,
2008-09-23, 03:48:00,VALID,916.346,VALID,0,VALID,100,VALID,-0.0849042,VALID,19.599,VALID,128,VALID,0,